TIME,DELAY(SENSOR),PRES,OXYGEN,RAWTEMP,T(OPTODE),TCPHASE,FLUOR,BETA(BETA700),BETA(BETA412),BETA(BETA440),CDOM,C(CSC),ED(ED412.40),ED(ED444.00),ED(ED489.70),ED(ED554.30),LU(LU411.80),LU(LU443.40),LU(LU489.60),LU(LU554.10),COMP,TILTX,TILTY,CHECK
1370231880,5807,793.8599853515625000,41.0513801574707000,653.9375000000000000,4.8273577690124510,54.7699890136718750,53,101,87,80,79,14823,2147751798,2147423350,2148008283,2147876059,2147636553,2147055460,2148256155,2147196187,712,4,13,5359
1370235476,5808,823.4000244140625000,44.1066894531250000,658.8237304687500000,4.6666908264160160,54.3757019042968750,53,99,85,80,80,14821,2147750299,2147421046,2148011291,2147877403,2147640987,2147057188,2148257837,2147195236,169,4,13,11642
1370239076,5810,839.5800170898438000,43.9860000610351560,659.8137817382812000,4.6341037750244140,54.4049301147460940,52,99,84,79,79,14825,2147757074,2147423350,2148008950,2147873764,2147637449,2147053750,2148254363,2147199131,173,4,13,10884
1370242676,5809,859.3499755859375000,44.7978401184082000,663.3239135742188000,4.5184822082519530,54.3266487121582000,52,99,88,78,80,14825,2147755538,2147424713,2148010642,2147874386,2147641097,2147050486,2148257737,2147196105,2450,4,13,30789
1370246276,5808,862.4199829101562000,46.4231414794921900,663.4630737304688000,4.5138931274414060,54.0927505493164060,53,102,85,79,79,14825,2147755520,2147423405,2148010048,2147872310,2147641408,2147060196,2148256237,2147196745,3551,4,13,25882
1370249876,5812,860.8900146484375000,46.6535797119140600,664.3477172851562000,4.4847340583801270,54.0689811706543000,52,98,86,80,79,14826,2147753389,2147423369,2148008265,2147875108,2147640566,2147056886,2148254290,2147196790,205,4,13,23217
1370253476,5810,883.4600219726562000,48.3585891723632800,666.8632202148438000,4.4017620086669920,53.8596115112304700,52,99,87,78,79,14824,2147755574,2147426139,2148008694,2147875986,2147641398,2147060342,2148258285,2147197412,278,4,13,61294
1370257076,5809,885.7100219726562000,49.1861801147460940,667.3936157226562000,4.3842577934265140,53.7514495849609400,53,99,86,80,80,14823,2147753462,2147426203,2148008521,2147875355,2147640548,2147057782,2148261376,2147199588,3518,4,13,20099
1370260676,5810,888.8099975585938000,48.9937705993652340,667.4984741210938000,4.3807959556579590,53.7793197631835940,52,98,86,79,78,14826,2147752475,2147424402,2148009645,2147874057,2147639058,2147054180,2148258404,2147197065,267,4,13,26275
1370264276,5811,906.2700195312500000,48.8212509155273440,670.1491699218750000,4.2932658195495605,53.8350601196289060,54,98,85,77,79,14824,2147752932,2147426715,2148009728,2147875017,2147640603,2147056841,2148257755,2147196032,262,4,13,52387
1370267876,5810,918.3300170898438000,47.1860313415527340,670.5175781250000000,4.2810959815979000,54.0698509216308600,52,100,87,78,80,14823,2147755218,2147426075,2148008676,2147876352,2147640201,2147057069,2148260004,2147193572,3434,4,13,58663
1370271476,5809,922.7100219726562000,47.1557197570800800,668.7299804687500000,4.3401408195495605,54.0484809875488300,52,98,86,78,79,14817,2147754953,2147425462,2148008301,2147873792,2147640694,2147056393,2148260324,2147195593,31,4,13,42723
1370275076,5808,945.5499877929688000,47.6097793579101560,671.8126831054688000,4.2382979393005370,54.0301399230957000,52,99,87,79,80,14824,2147753993,2147423579,2148008649,2147875520,2147641901,2147055268,2148261549,2147193910,464,4,13,43636
1370278676,5809,952.1599731445312000,47.6984214782714840,671.7849731445312000,4.2392139434814450,54.0126800537109400,53,99,86,80,78,14822,2147753408,2147425124,2148010285,2147873499,2147639817,2147052470,2148265124,2147196397,3564,4,13,45238
1370282276,5811,958.4899902343750000,47.8091812133789060,671.2406005859375000,4.2572059631347660,53.9906806945800800,53,97,87,79,80,14822,2147756306,2147423259,2148010322,2147876900,2147643072,2147052352,2148263606,2147195657,2623,4,13,23298
1370285876,5810,976.4199829101562000,48.0340995788574200,673.0388793945312000,4.1977601051330570,53.9796485900878900,52,100,86,80,81,14820,2147757714,2147423204,2148011565,2147872923,2147639286,2147054555,2148258066,2147192667,298,4,13,24492
1370289476,5806,975.4400024414062000,48.4224510192871100,673.7661743164062000,4.1737060546875000,53.9355316162109400,53,98,86,78,80,14818,2147755236,2147423552,2148009042,2147875657,2147644544,2147051876,2148256795,2147195913,150,4,13,30942
1370293076,5808,974.8499755859375000,48.8444709777832000,674.8557739257812000,4.1376571655273440,53.8911514282226560,53,98,88,79,81,14819,2147757878,2147425197,2148007789,2147879204,2147640777,2147057142,2148264539,2147199259,375,4,13,37668
1370296676,5812,975.5700073242188000,49.0718994140625000,674.8629150390625000,4.1374239921569820,53.8569297790527340,53,97,86,78,80,14819,2147759158,2147422811,2148010852,2147877888,2147639433,2147051318,2148258889,2147198656,70,4,13,4531
1370300276,5810,976.2600097656250000,49.8116607666015600,675.7056884765625000,4.1095290184021000,53.7652091979980500,52,99,88,78,80,14816,2147757001,2147425755,2148009737,2147879954,2147640960,2147046244,2148263442,2147196726,3297,4,13,9095
1370303876,5809,974.5300292968750000,49.9508590698242200,676.1035156250000000,4.0963630676269530,53.7526283264160160,53,101,84,79,80,14819,2147758720,2147424512,2148007414,2147875200,2147643803,2147054363,2148262628,2147196845,856,4,13,8076
1370307476,5807,975.2600097656250000,50.0609207153320300,676.0814208984375000,4.0970969200134280,53.7373390197753900,52,98,85,78,80,14817,2147755392,2147424466,2148013385,2147874953,2147640704,2147048996,2148263405,2147197632,520,4,13,3896
1370311076,5807,970.3900146484375000,50.1395111083984400,676.5177001953125000,4.0826511383056640,53.7339591979980500,52,97,86,79,80,14794,2147754258,2147424996,2148010724,2147875958,2147643456,2147049517,2148259291,2147196562,3539,4,13,5095
1370314676,5807,982.1599731445312000,50.1285514831543000,676.0064697265625000,4.0995731353759770,53.7296791076660160,52,98,87,79,79,14818,2147754843,2147423625,2148012288,2147874413,2147639661,2147054537,2148263698,2147194395,439,4,13,36156
1370318276,5808,984.7600097656250000,49.6537399291992200,675.2742919921875000,4.1238098144531250,53.7874984741210940,52,99,83,80,80,14816,2147753462,2147421842,2148007908,2147873270,2147638756,2147050194,2148262966,2147196150,3322,4,13,55523
1370321876,5808,979.6699829101562000,49.1798782348632800,675.4423217773438000,4.1182479858398440,53.8551597595214840,52,99,86,79,81,14816,2147754459,2147423085,2148008941,2147877010,2147639296,2147050413,2148261083,2147199442,146,4,13,19594
1370325476,5810,980.9899902343750000,49.4747390747070300,675.0357055664062000,4.1317062377929690,53.8034706115722660,53,99,83,79,80,14818,2147756242,2147424155,2148014500,2147872987,2147640585,2147049298,2148264256,2147197184,477,4,13,48941
1370329076,5808,982.2199707031250000,49.3952102661132800,675.7313232421875000,4.1086831092834470,53.8250885009765600,52,99,90,79,79,14816,2147754560,2147425042,2148011337,2147874834,2147644443,2147055771,2148266797,2147196681,3545,4,13,33873
1370332676,5805,979.8200073242188000,49.7612304687500000,675.8505859375000000,4.1047339439392090,53.7768211364746100,52,113,85,79,80,14817,2147757238,2147423744,2148009764,2147875291,2147642185,2147051739,2148255616,2147193188,3525,4,13,19824
1370336276,5808,972.4000244140625000,49.5200004577636700,676.5042724609375000,4.0830960273742680,53.8154182434082000,53,100,85,79,80,14810,2147757001,2147421750,2148011648,2147877979,2147642349,2147050761,2148260745,2147194432,422,4,13,24682
1370339876,5809,981.9699707031250000,50.1192703247070300,676.5457153320312000,4.0817260742187500,53.7365608215332000,52,98,86,79,79,14808,2147756434,2147421805,2148012379,2147878464,2147642331,2147046683,2148264905,2147195273,3155,4,13,13213
1370343476,5810,975.5399780273438000,49.2991714477539060,676.5120849609375000,4.0828337669372560,53.8493194580078100,52,98,84,79,81,14809,2147755757,2147421476,2148010724,2147877184,2147640685,2147054710,2148260059,2147195593,420,4,13,48820
1370347076,5808,978.3400268554688000,49.5029907226562500,676.3449096679688000,4.0883708000183105,53.8189582824707000,53,98,89,79,78,14808,2147754505,2147426203,2148011757,2147876516,2147644077,2147047954,2148260214,2147194267,103,4,13,8041
1370350676,5807,979.5700073242188000,49.5423812866210940,676.3701171875000000,4.0875377655029300,53.8128089904785160,53,99,87,77,80,14809,2147756342,2147424045,2148011574,2147876032,2147645302,2147052873,2148259593,2147197933,29,4,13,14935
1370354276,5810,981.0900268554688000,49.5597610473632800,675.7067260742188000,4.1094970703125000,53.8023796081543000,52,99,84,80,79,14803,2147754203,2147424118,2148011785,2147875081,2147643501,2147047908,2148258477,2147196608,11,4,13,6413
1370357876,5809,981.3699951171875000,49.7317008972168000,675.5795288085938000,4.1137099266052250,53.7751197814941400,54,97,88,77,79,14807,2147754349,2147425709,2148012278,2147874614,2147642980,2147050934,2148256841,2147197430,89,4,13,57790
1370361476,5812,976.6500244140625000,49.2716102600097660,675.7780761718750000,4.1071338653564450,53.8458900451660160,53,98,83,79,80,14806,2147755812,2147424713,2148012763,2147873654,2147641618,2147055131,2148262107,2147191716,3285,4,13,12127
1370365076,5810,975.7399902343750000,49.4709091186523440,675.9667968750000000,4.1008892059326170,53.8152198791503900,53,100,84,78,79,14805,2147754011,2147424694,2148011510,2147872576,2147641280,2147053019,2148259081,2147195501,3245,4,13,4647
1370368676,5811,980.4000244140625000,49.2798385620117200,676.0634765625000000,4.0976867675781250,53.8440895080566400,53,99,86,79,79,14767,2147756361,2147425481,2148011730,2147875474,2147639899,2147050989,2148258907,2147195675,3358,4,13,52956
1370372276,5812,983.6300048828125000,48.8739700317382800,675.8391723632812000,4.1051120758056640,53.8989105224609400,52,97,85,341,80,14767,2147755986,2147423442,2148008795,2147873901,2147642002,2147049810,2148262802,2147196361,40,4,13,22046
1370375876,5810,981.4500122070312000,49.0034294128418000,675.4871826171875000,4.1167621612548830,53.8752708435058600,52,99,89,79,79,14764,2147754294,2147426212,2148007113,2147872082,2147638857,2147051291,2148258057,2147193865,161,4,13,63168
1370376655,5809,979.4600219726562000,49.1827087402343750,675.8403930664062000,4.1050739288330080,53.8594894409179700,52,100,85,78,81,14794,2147756324,2147426642,2148011017,2147876864,2147642614,2147055305,2148260278,2147198381,3427,4,13,10802
